Volver al catálogo

ETRSS-1

ActivoCienciaSSO
NORAD 44880·PAYLOAD·🇪🇹 Ethiopia
Este nombre de satélite aún no ha sido confirmado por fuentes oficiales.

Lanzado Dec 20, 2019 desde Taiyuan Satellite Launch Center

Loading…

Próximos Pases (próximas 24 horas)

TLE

ActualizadoSource: Space-Track

Época: Sep 14, 2026, 14:02 UTC

1 44880U 19093B   26257.58537554  .00002491  00000-0  22542-3 0  9994
2 44880  97.7786 341.3222 0012774 112.9908 247.2662 14.96274499365422

Sigue ETRSS-1 en tiempo real con AllMySat

Download on the App Store